Location: Dob?e?
(49.9411°N, 15.1496°E)
Time: 12:05:03
(UTC+00:00)

DELFI C3 - Pass Details

Date: 29 October 2021
Orbit: 529 x 543 km, 97.4° (Epoch: 29 November)

Event Time Altitude Azimuth Distance (km) Brightness Sun altitude
Exits shadow 19:25:40 12° 288° (WNW) 1,672 ? -36.1°
Drops below altitude 10° 19:26:26 10° 300° (WNW) 1,789 ? -36.2°
Sets 19:29:39 0° 329° (NNW) 2,685 ? -36.7°
